Home > Weather > Battambang > Past weeks

Flag for Cambodia Past Weather in Battambang, Cambodia — Yesterday and Last 2 Weeks

Now
79 °F

Clear.


Feels Like: 83 °F
Forecast: 77 / 94 °F
Wind: 2 mph from Southeast

Location: Siemreap

Current Time: Jul 1, 2016 at 12:54:29 AM

Latest Report: Jul 1, 2016 at 12:00 AM


Visibility: 5 mi

Pressure: 29.74 "Hg

Humidity: 100%

Dew Point: 79 °F

Location of BattambangLocation

Past Weather in Battambang — Graph

°F

Battambang Temperature Yesterday

Maximum temperature yesterday: 86 °F (at 1:00 PM)
Minimum temperature yesterday: 77 °F (at 12:00 AM)
Average temperature yesterday: 81 °F

High & Low Weather Summary for the Past Weeks

 TemperatureHumidityPressure
High97 °F (Jun 19, 3:00 PM)100% (Jun 16, 1:30 AM)29.83 "Hg (Jun 16, 1:30 AM)
Low75 °F (Jun 17, 6:00 PM)42% (Jun 19, 3:00 PM)29.59 "Hg (Jun 20, 3:30 PM)
Average82 °F86%29.72 "Hg
* Reported Jun 15 11:00 PM — Jun 30 11:30 PM, Battambang, Weather by CustomWeather, © 2016

Note: Actual official high and low records may vary slightly from our data, if they occured in-between our weather recording intervals... More about our weather records

Advertising

Battambang Weather History for the Previous 24 Hours

Scroll right to see more
 ConditionsComfort  
Time TempWeatherWind HumidityBarometerVisibility
11:30 PM
Thu, Jun 30
79 °FClear.No wind100%29.77 "Hg5 mi
11:00 PM81 °FClear.3 mph100%29.77 "Hg5 mi
10:30 PM81 °FClear.No wind100%29.77 "Hg5 mi
10:00 PM81 °FPassing clouds.No wind100%29.77 "Hg5 mi
9:30 PM81 °FPassing clouds.2 mph100%29.77 "Hg5 mi
9:00 PM81 °FPartly cloudy.No wind94%29.74 "Hg5 mi
8:30 PM81 °FPartly cloudy.2 mph94%29.74 "Hg5 mi
8:00 PM81 °FPartly cloudy.6 mph94%29.74 "Hg5 mi
7:30 PM82 °FLight rain. Partly cloudy.5 mph89%29.74 "Hg5 mi
7:00 PM82 °FPartly cloudy.5 mph89%29.71 "Hg5 mi
6:30 PM84 °FBroken clouds.7 mph84%29.71 "Hg6 mi
6:00 PM84 °FBroken clouds.8 mph84%29.71 "Hg6 mi
5:30 PM84 °FBroken clouds.6 mph84%29.68 "Hg6 mi
5:00 PM84 °FBroken clouds.9 mph84%29.68 "Hg6 mi
4:30 PM84 °FBroken clouds.9 mph84%29.68 "Hg6 mi
4:00 PM82 °FLight rain. Broken clouds.9 mph84%29.71 "Hg6 mi
3:30 PM84 °FBroken clouds.7 mph84%29.71 "Hg6 mi
3:00 PM82 °FLight rain. Broken clouds.6 mph89%29.71 "Hg6 mi
2:30 PM81 °FLight rain. Broken clouds.6 mph100%29.71 "Hg6 mi
2:00 PM79 °FThunderstorms. Broken clouds.12 mph100%29.71 "Hg4 mi
1:30 PM84 °FRain. Broken clouds.8 mph74%29.74 "Hg6 mi
1:00 PM86 °FScattered clouds.6 mph70%29.74 "HgN/A
12:30 PM84 °FScattered clouds.6 mph74%29.74 "HgN/A
12:00 PM82 °FScattered clouds.9 mph84%29.77 "HgN/A
11:30 AM82 °FScattered clouds.8 mph79%29.77 "HgN/A
11:00 AM84 °FScattered clouds.7 mph74%29.77 "HgN/A
10:30 AM84 °FScattered clouds.8 mph74%29.77 "HgN/A
10:00 AM84 °FScattered clouds.6 mph74%29.77 "HgN/A
9:30 AM82 °FScattered clouds.5 mph89%29.77 "HgN/A
9:00 AM81 °FScattered clouds.5 mph94%29.77 "HgN/A
8:30 AM79 °FScattered clouds.7 mph100%29.77 "HgN/A
8:00 AM79 °FScattered clouds.7 mph100%29.77 "HgN/A
7:30 AM79 °FScattered clouds.6 mph100%29.77 "HgN/A
7:00 AM77 °FScattered clouds.5 mph100%29.77 "HgN/A
2:30 AM77 °FPartly cloudy.2 mph100%29.74 "Hg5 mi
2:00 AM77 °FPartly cloudy.1 mph100%29.74 "Hg5 mi
1:30 AM77 °FPartly cloudy.2 mph100%29.74 "Hg5 mi
1:00 AM77 °FPartly cloudy.2 mph100%29.74 "Hg5 mi
12:30 AM77 °FPartly cloudy.2 mph100%29.74 "Hg5 mi
12:00 AM77 °FPartly cloudy.1 mph100%29.77 "Hg5 mi
Weather by CustomWeather, © 2016

See weather overviewHow to use our weather pages